Weather observations for the past three days for
Petersburg, Grant County Airport
Imperial (Metric)
Date Time (edt) Wind (mph) Vis. (mi.) Weather Sky Cond. Temperature (ºF) Relative Humidity Wind Chill (°F) Heat Index (°F) Pressure Precipitation (in)
Air Dwpt 6 hour altimeter (in) sea level (mb) 1 hr 3 hr 6 hr
Max. Min.
22 20:55 SE 3 10.00 Overcast OVC110 79.9 73 80% 84 29.95 0.0
22 20:35 SE 3 10.00 Mostly Cloudy FEW080 BKN100 80.1 72.9 79% 84 29.95 0.0
22 20:15 S 3 10.00 Overcast SCT080 BKN100 OVC130 81.1 71.6 73% 85 29.95 0.0
22 19:55 S 5 10.00 Overcast SCT080 OVC100 82.6 70.3 67% 87 29.95 0.0
22 19:35 SE 8 10.00 Overcast OVC075 83.5 69.4 63% 87 29.95 0.0
22 19:15 W 7 10.00 Mostly Cloudy BKN075 86.4 68.5 55% 90 29.95 0.0
22 18:55 SW 9 10.00 Mostly Cloudy BKN080 BKN095 87.8 66.2 49% 90 29.94 0.0
22 18:35 S 10 G 18 10.00 Overcast BKN080 OVC090 88.5 66.9 49% 92 29.95 0.0
22 18:15 NW 6 8.00 Light Rain BKN075 OVC180 88.3 68.5 52% 92 29.94 0.0
22 17:55 NW 3 10.00 Mostly Cloudy SCT090 BKN180 87.4 73.2 63% 95 29.94 0.0
22 17:35 S 5 10.00 Mostly Cloudy BKN090 93 65.8 41% 96 29.94 0.0
22 17:15 S 3 10.00 Mostly Cloudy BKN090 BKN110 93.2 64.2 38% 95 29.95 0.0
22 16:55 S 5 10.00 Partly Cloudy FEW085 SCT110 93.7 63.7 37% 95 29.95 0.0
22 16:35 Calm 10.00 A Few Clouds FEW085 94.6 63.3 36% 96 29.96 0.0
22 16:15 S 5 10.00 A Few Clouds FEW090 95 62.1 34% 96 29.96 0.0
22 15:55 SE 7 10.00 A Few Clouds FEW100 95 62.1 34% 96 29.97 0.0
22 15:35 Vrbl 6 10.00 Fair CLR 94.5 61.9 34% 95 29.98 0.0
22 15:15 W 5 10.00 Fair CLR 94.3 62.2 35% 95 29.99 0.0
22 14:55 Calm 10.00 Fair CLR 94.6 62.1 34% 95 29.99 0.0
22 14:35 NW 6 10.00 Fair CLR 95 63.3 35% 97 30 0.0
22 14:15 Calm 10.00 Fair CLR 94.6 63.1 35% 96 30.02 0.0
22 13:55 Vrbl 3 10.00 A Few Clouds FEW070 93.6 62.8 36% 95 30.03 0.0
22 13:35 SW 6 10.00 Partly Cloudy SCT070 93.6 63.9 37% 95 30.03 0.0
22 13:15 Vrbl 3 10.00 A Few Clouds FEW070 93 64 38% 95 30.04 0.0
22 12:55 S 6 10.00 A Few Clouds FEW060 92.3 65.3 41% 95 30.05 0.0
22 12:35 Calm 10.00 Fair CLR 91.6 65.7 42% 94 30.06 0.0
22 12:15 Vrbl 3 10.00 Fair CLR 91.4 66.4 44% 94 30.06 0.0
22 11:55 Vrbl 3 10.00 Fair CLR 89.8 66.4 46% 93 30.07 0.0
22 11:35 E 5 10.00 Fair CLR 90.1 67.3 47% 94 30.07 0.0
22 11:15 E 3 10.00 Fair CLR 88.5 67.6 50% 92 30.08 0.0
22 10:55 Calm 10.00 Fair CLR 86.7 70.3 58% 92 30.09 0.0
22 10:35 Calm 10.00 Fair CLR 85.3 69.8 60% 90 30.1 0.0
22 10:15 Calm 10.00 Fair CLR 84.6 70.5 63% 89 30.11 0.0
22 09:55 NE 3 10.00 Fair CLR 82.2 69.3 65% 86 30.12 0.0
22 09:35 Calm 10.00 Fair CLR 81 69.6 69% 84 30.12 0.0
22 09:15 Calm 10.00 Fair CLR 79.3 68.4 69% 82 30.13 0.0
22 08:55 Calm 10.00 Fair CLR 77.5 68.7 74% 79 30.13 0.0
22 08:35 Calm 10.00 Fair CLR 75 69.6 83% 75 30.13 0.0
22 08:15 Calm 10.00 Fair CLR 73 69.4 89% 30.13 0.0
22 07:55 Calm 9.00 Fair CLR 70.7 68.7 93% 30.13 0.0
22 07:35 Calm 8.00 Fair CLR 69.1 68.4 98% 30.14 0.0
22 07:15 Calm 8.00 Fair CLR 68 67.6 99% 30.14 0.0
22 06:55 Calm 5.00 Fog/Mist CLR 67.5 67.1 99% 30.14 0.0
22 06:35 Calm 7.00 A Few Clouds FEW090 67.6 67.6 100% 30.14 0.0
22 06:15 Calm 6.00 Fog/Mist FEW090 66.9 66.6 99% 30.14 0.0
22 05:55 Calm 6.00 Fog/Mist CLR 66.6 66.4 99% 30.14 0.0
22 05:35 Calm 5.00 Fog/Mist CLR 67.5 67.5 100% 30.13 0.0
22 05:15 Calm 7.00 Fair CLR 67.5 67.3 99% 30.13 0.0
22 04:55 Calm 5.00 Fog/Mist CLR 67.6 67.6 100% 30.13 0.0
22 04:35 Calm 3.00 Fog/Mist CLR 68.4 68.4 100% 30.14 0.0
22 04:15 Calm 7.00 Fair CLR 68.5 68.4 99% 30.13 0.0
22 03:55 Calm 4.00 Fog/Mist CLR 69.1 69.1 100% 30.13 0.0
22 03:35 Calm 7.00 Fair CLR 68.9 68.7 99% 30.13 0.0
22 03:15 Calm 5.00 Fog/Mist CLR 69.6 69.6 100% 30.13 0.0
22 02:55 Calm 6.00 Fog/Mist CLR 69.3 69.3 100% 30.13 0.0
22 02:35 Calm 5.00 Fog/Mist CLR 70.3 70.3 100% 30.14 0.0
22 02:15 Calm 9.00 Fair CLR 70.2 69.3 97% 30.14 0.0
22 01:55 Calm 8.00 Fair CLR 70.7 70 98% 30.14 0.0
22 01:35 Calm 6.00 Fog/Mist CLR 71.1 71.1 100% 30.14 0.0
22 01:15 Calm 7.00 Fair CLR 71.8 71.6 99% 30.14 0.0
22 00:55 Calm 9.00 Fair CLR 71.8 71.1 98% 30.14 0.0
22 00:35 Calm 10.00 Fair CLR 72.5 70.3 93% 30.15 0.0
22 00:15 Calm 10.00 Fair CLR 72.7 70.9 94% 30.15 0.0
21 23:55 Calm 6.00 Fog/Mist CLR 73.2 72.7 98% 30.15 0.0
21 23:35 Calm 8.00 Fair CLR 73.8 72.9 97% 30.15 0.0
21 23:15 Calm 8.00 Fair CLR 74.5 72.7 94% 30.14 0.0
21 22:55 Calm 10.00 Fair CLR 75.2 73.8 95% 74 30.14 0.0
21 22:35 Calm 10.00 Fair CLR 75.9 72.9 90% 76 30.14 0.0
21 22:15 Calm 10.00 Fair CLR 76.8 74.8 94% 78 30.13 0.0
21 21:55 Calm 10.00 Fair CLR 77.4 75.6 94% 79 30.13 0.0
21 21:35 Calm 10.00 Fair CLR 77.4 75.6 94% 79 30.13 0.0
21 21:15 Calm 10.00 Partly Cloudy SCT070 79.3 75.2 87% 84 30.13 0.0
21 20:55 NW 5 10.00 Partly Cloudy SCT070 SCT090 81 75.4 83% 87 30.12 0.0
21 20:35 NW 5 9.00 Partly Cloudy SCT090 79.7 76.5 90% 85 30.12 0.0
21 20:15 Calm 8.00 Mostly Cloudy BKN090 80.2 75.9 87% 86 30.12 0.0
21 19:55 Calm 8.00 Fair CLR 80.2 76.5 88% 86 30.12 0.0
21 19:35 Calm 8.00 A Few Clouds FEW100 80.8 77.2 89% 88 30.11 0.0
21 19:15 Calm 8.00 Partly Cloudy SCT100 82.8 79.3 89% 94 30.11 0.0
21 18:55 Calm 9.00 Mostly Cloudy BKN095 BKN200 84.9 80.8 87% 100 30.11 0.0
21 18:35 Calm 6.00 Fog/Mist SCT085 BKN200 82.8 80.8 94% 95 30.11 0.0
21 18:15 Calm 7.00 Mostly Cloudy BKN095 81.7 79 92% 91 30.12 0.0
21 17:55 N 3 6.00 Fog/Mist BKN090 78.8 77.2 95% 83 30.12 0.0
21 17:35 Calm 2.00 Fog/Mist SCT065 OVC090 79 75.9 90% 83 30.13 0.0 0.26
21 17:15 N 10 0.50 Heavy Rain BKN060 OVC090 84.4 68.5 59% 88 30.14 0.0 0.23
21 16:55 N 5 10.00 Mostly Cloudy BKN090 90.7 66.6 45% 94 30.13 0.0
21 16:35 NE 5 10.00 Mostly Cloudy SCT080 BKN095 92.3 65.8 42% 95 30.13 0.0
21 16:15 NW 6 10.00 Mostly Cloudy BKN080 92.3 66.2 42% 95 30.14 0.0
21 15:55 W 10 10.00 Mostly Cloudy BKN080 BKN100 92.3 68.4 46% 97 30.15 0.0
21 15:35 W 9 10.00 Mostly Cloudy BKN070 91.6 68.2 46% 96 30.15 0.0
21 15:15 Calm 10.00 Mostly Cloudy BKN070 92.5 63.5 38% 94 30.16 0.0
21 14:55 SE 5 10.00 Mostly Cloudy BKN065 92.7 64.2 39% 94 30.16 0.0
21 14:35 Calm 10.00 Partly Cloudy FEW070 SCT085 92.3 64.6 40% 94 30.17 0.0
21 14:15 SE 6 10.00 Mostly Cloudy BKN065 BKN085 91.9 65.1 41% 94 30.18 0.0
21 13:55 Calm 10.00 Partly Cloudy FEW060 SCT340 SCT370 91.4 64.9 42% 93 30.19 0.0
21 13:35 Calm 10.00 Fair CLR 91 64.8 42% 93 30.19 0.0
21 13:15 E 3 10.00 A Few Clouds FEW350 90.5 64 42% 92 30.2 0.0
21 12:55 Calm 10.00 Fair CLR 90 63.9 42% 91 30.21 0.0
21 12:35 Vrbl 6 10.00 Fair CLR 89.6 66.2 46% 92 30.21 0.0
21 12:15 Calm 10.00 Fair CLR 88.2 66.4 49% 91 30.22 0.0
21 11:55 Calm 10.00 Fair CLR 88.3 68.4 52% 92 30.23 0.0
21 11:35 E 5 10.00 Fair CLR 87.1 68 53% 91 30.23 0.0
21 11:15 Vrbl 5 10.00 Fair CLR 86.5 68 54% 90 30.24 0.0
21 10:55 Calm 10.00 Fair CLR 84.6 66.2 54% 87 30.24 0.0
21 10:35 Calm 10.00 Fair CLR 83.5 66.9 58% 86 30.25 0.0
21 10:15 Calm 10.00 Fair CLR 82.4 67.1 60% 85 30.25 0.0
21 09:55 Vrbl 3 10.00 Fair CLR 80.8 66.6 62% 83 30.25 0.0
21 09:35 Calm 10.00 Fair CLR 78.4 66.2 66% 80 30.26 0.0
21 09:15 Calm 10.00 Fair CLR 77 65.8 69% 79 30.26 0.0
21 08:55 Calm 9.00 Fair CLR 75 65.3 72% 77 30.27 0.0
21 08:35 Calm 10.00 Fair CLR 73.2 65.3 76% 30.27 0.0
21 08:15 Calm 9.00 Fair CLR 71.4 65.8 83% 30.27 0.0
21 07:55 Calm 9.00 A Few Clouds FEW230 70.3 65.7 85% 30.27 0.0
21 07:35 Calm 9.00 Partly Cloudy SCT230 68.7 65.3 89% 30.27 0.0
21 07:15 Calm 9.00 Fair CLR 67.1 65.5 95% 30.27 0.0
21 06:55 Calm 7.00 Fair CLR 66 65.5 98% 30.27 0.0
21 06:35 Calm 7.00 Fair CLR 64.6 64 98% 30.27 0.0
21 06:15 Calm 8.00 Fair CLR 64.4 64 99% 30.27 0.0
21 05:55 Calm 8.00 A Few Clouds FEW230 64.4 63.9 98% 30.27 0.0
21 05:35 Calm 9.00 Fair CLR 64.6 64 98% 30.27 0.0
21 04:55 Calm 5.00 Fog/Mist OVC220 65.1 65.1 100% 30.26 0.0
21 04:35 Calm 8.00 Mostly Cloudy BKN220 65.3 65.1 99% 30.26 0.0
21 04:15 Calm 10.00 Fair CLR 65.5 64.6 97% 30.26 0.0
21 03:55 Calm 10.00 A Few Clouds FEW230 66.2 65.1 96% 30.27 0.0
21 03:35 Calm 8.00 Partly Cloudy SCT230 66.2 65.1 96% 30.27 0.0
21 03:15 Calm 8.00 A Few Clouds FEW230 66.6 66 98% 30.27 0.0
21 02:55 Calm 10.00 Partly Cloudy FEW065 SCT240 67.1 65.1 93% 30.26 0.0
21 02:35 Calm 10.00 A Few Clouds FEW065 67.1 65.8 96% 30.27 0.0
21 02:15 Calm 10.00 A Few Clouds FEW250 67.1 65.7 95% 30.27 0.0
21 01:55 Calm 10.00 Partly Cloudy SCT250 SCT270 68.2 65.7 92% 30.27 0.0
21 01:35 Calm 8.00 Partly Cloudy SCT250 SCT270 68.2 65.7 92% 30.27 0.0
21 01:15 Calm 10.00 Mostly Cloudy FEW075 BKN250 68 65.3 91% 30.27 0.0
21 00:55 Calm 10.00 A Few Clouds FEW250 69.6 66.2 89% 30.27 0.0
21 00:35 Calm 10.00 A Few Clouds FEW250 69.1 65.8 89% 30.28 0.0
21 00:15 Calm 10.00 Fair CLR 70 66.6 89% 30.28 0.0
20 23:55 Calm 10.00 Fair CLR 70.3 66.6 88% 30.28 0.0
20 23:35 Calm 10.00 Fair CLR 72.5 67.1 83% 30.27 0.0
20 23:15 NW 3 10.00 Fair CLR 72.3 66.9 83% 30.27 0.0
20 22:55 Calm 10.00 Fair CLR 73.2 68.9 86% 30.27 0.0
20 22:35 Calm 10.00 Fair CLR 73.4 67.6 82% 30.27 0.0
20 22:15 Calm 10.00 Fair CLR 74.7 68.7 82% 30.27 0.0
20 21:55 W 5 10.00 Fair CLR 76.3 68.4 77% 78 30.26 0.0
20 21:35 W 6 10.00 Fair CLR 77.4 68.2 73% 79 30.25 0.0
20 21:15 NW 6 10.00 Fair CLR 78.1 68 71% 80 30.25 0.0
20 20:55 NW 3 10.00 Fair CLR 79.2 69.3 72% 82 30.24 0.0
20 20:35 Calm 10.00 Fair CLR 83.1 68.2 61% 86 30.24 0.0
20 20:15 E 3 10.00 Fair CLR 86.2 66.7 52% 89 30.24 0.0
20 19:55 E 3 10.00 A Few Clouds FEW280 88 65.8 48% 90 30.23 0.0
20 19:35 E 3 10.00 A Few Clouds FEW280 88.9 64.4 44% 90 30.23 0.0
20 19:15 E 6 10.00 A Few Clouds FEW290 89.8 63.7 42% 91 30.23 0.0
20 18:55 E 3 10.00 Partly Cloudy SCT290 90.3 62.4 39% 91 30.23 0.0
20 18:35 NE 5 10.00 Fair CLR 90.7 62.8 39% 92 30.23 0.0
20 18:15 E 3 10.00 Fair CLR 91.2 62.8 39% 92 30.23 0.0
20 17:55 SE 5 10.00 A Few Clouds FEW065 91.6 63.1 39% 93 30.23 0.0
20 17:35 E 6 10.00 A Few Clouds FEW065 91.4 64 40% 93 30.24 0.0
20 17:15 Calm 10.00 Fair CLR 90.9 62.8 39% 92 30.25 0.0
20 16:55 Vrbl 3 10.00 Fair CLR 91 63.7 40% 92 30.25 0.0
20 16:35 SE 5 10.00 Fair CLR 90.7 64.4 42% 92 30.26 0.0
20 16:15 Calm 10.00 Fair CLR 89.2 64.2 43% 91 30.27 0.0
20 15:55 E 6 10.00 A Few Clouds FEW060 89.4 64.9 44% 91 30.27 0.0
20 15:35 Vrbl 3 10.00 Partly Cloudy SCT060 90.9 65.1 43% 93 30.28 0.0
20 15:15 E 7 10.00 Partly Cloudy SCT060 90.9 65.7 43% 93 30.29 0.0
20 14:55 Vrbl 3 10.00 Fair CLR 89.6 64.6 44% 91 30.29 0.0
20 14:35 SE 6 10.00 A Few Clouds FEW280 89.2 65.1 45% 91 30.3 0.0
20 14:15 Vrbl 5 10.00 A Few Clouds FEW330 89.1 65.7 46% 91 30.31 0.0
20 13:55 Vrbl 5 10.00 Mostly Cloudy SCT050 SCT330 BKN370 88.5 65.1 46% 90 30.31 0.0
20 13:35 N 3 10.00 Mostly Cloudy SCT050 BKN290 86.7 65.8 50% 89 30.31 0.0
20 13:15 NW 6 10.00 A Few Clouds FEW290 87.4 65.7 48% 90 30.32 0.0
20 12:55 Calm 10.00 A Few Clouds FEW300 86.4 65.7 50% 88 30.33 0.0
20 12:35 E 6 10.00 A Few Clouds FEW300 86.2 65.8 51% 88 30.34 0.0
20 12:15 Calm 10.00 Partly Cloudy FEW045 SCT300 85.6 65.5 51% 88 30.34 0.0
20 11:55 S 3 10.00 Partly Cloudy SCT044 84.4 65.7 53% 86 30.35 0.0
20 11:35 E 3 10.00 Partly Cloudy SCT045 82.8 65.7 56% 85 30.35 0.0
20 11:15 NW 3 10.00 A Few Clouds FEW300 82.2 65.7 57% 84 30.35 0.0
20 10:55 Calm 10.00 Partly Cloudy FEW048 SCT300 80.1 65.3 61% 82 30.36 0.0
20 10:35 Calm 10.00 A Few Clouds FEW310 79 65.5 63% 81 30.36 0.0
20 10:15 Calm 10.00 A Few Clouds FEW290 78.8 65.8 65% 81 30.36 0.0
20 09:55 Calm 10.00 A Few Clouds FEW050 76.1 65.1 69% 78 30.36 0.0
20 09:35 Calm 10.00 Partly Cloudy SCT050 74.7 64.4 71% 30.37 0.0
20 09:15 Calm 10.00 Partly Cloudy SCT050 73.2 64.6 74% 30.37 0.0
20 08:55 Calm 10.00 Fair CLR 72 64.4 77% 30.37 0.0
20 08:35 Calm 10.00 A Few Clouds FEW290 71.2 64.2 79% 30.37 0.0
20 08:15 Calm 9.00 A Few Clouds FEW290 70.2 65.3 85% 30.37 0.0
20 07:55 Calm 9.00 Light Rain CLR 68.9 64.8 87% 30.36 0.0
20 07:35 Calm 10.00 A Few Clouds FEW290 68.9 64.9 87% 30.36 0.0
20 07:15 Calm 9.00 Fair CLR 67.3 65.1 93% 30.36 0.0
20 06:55 Calm 9.00 Fair CLR 65.7 64 95% 30.36 0.0
20 06:35 Calm 8.00 Fair CLR 64.2 63.7 98% 30.36 0.0
20 06:15 Calm 8.00 Fair CLR 63.9 63.3 98% 30.36 0.0
20 05:55 Calm 8.00 Fair CLR 63.5 63 98% 30.35 0.0
20 05:35 Calm 9.00 Fair CLR 64 63.5 98% 30.34 0.0
20 05:15 Calm 9.00 Fair CLR 64.4 63.3 96% 30.34 0.0
20 04:55 Calm 10.00 Fair CLR 64.2 63.3 97% 30.34 0.0
20 04:35 Calm 9.00 Fair CLR 64.9 64 97% 30.34 0.0
20 04:15 Calm 8.00 Fair CLR 64.9 64.8 99% 30.34 0.0
20 03:55 Calm 10.00 Fair CLR 65.1 63.9 96% 30.34 0.0
20 03:35 W 5 10.00 Fair CLR 65.5 64.2 96% 30.34 0.0
20 03:15 Calm 10.00 Fair CLR 65.8 64 94% 30.33 0.0
20 02:55 Calm 10.00 Fair CLR 66.4 63.9 92% 30.33 0.0
20 02:35 Calm 10.00 Fair CLR 66.9 65.5 95% 30.34 0.0
20 02:15 Calm 10.00 Fair CLR 67.1 64.4 91% 30.34 0.0
20 01:55 Calm 10.00 Fair CLR 67.5 64.2 89% 30.34 0.0
20 01:35 Calm 10.00 Fair CLR 67.6 66.2 95% 30.34 0.0
20 01:15 Calm 10.00 Fair CLR 68.2 64.8 89% 30.34 0.0
20 00:55 NW 3 10.00 Fair CLR 68.7 66.2 92% 30.34 0.0
20 00:35 Calm 10.00 Fair CLR 69.4 65.1 86% 30.34 0.0
20 00:15 Calm 10.00 Fair CLR 69.1 67.1 93% 30.34 0.0
19 23:55 Calm 10.00 Fair CLR 70.9 65.7 84% 30.34 0.0
19 23:35 Calm 10.00 Fair CLR 70.9 67.3 88% 30.34 0.0
19 23:15 Calm 10.00 Fair CLR 71.2 65.1 81% 30.34 0.0
19 22:55 Calm 10.00 Fair CLR 72.1 68.2 87% 30.34 0.0
19 22:35 Calm 10.00 Fair CLR 73.2 66.7 80% 30.33 0.0
19 22:15 W 3 10.00 Fair CLR 73.8 67.3 80% 30.33 0.0
19 21:55 NW 5 10.00 Fair CLR 73.9 67.3 80% 30.31 0.0
19 21:35 Calm 10.00 Fair CLR 74.7 68.2 80% 30.3 0.0
19 21:15 Calm 10.00 Fair CLR 76.3 68.4 77% 78 30.3 0.0
Date Time (edt) Wind (mph) Vis. (mi.) Weather Sky Cond. Air Dwpt Max. Min. Relative Humidity Wind Chill (°F) Heat Index (°F) altimeter (in) sea level (mb) 1 hr 3 hr 6 hr
6 hour
Temperature (ºF) Pressure Precipitation (in)